Regional Weather Roundup
Issued by NWS

Home | Current Version | Previous Version | Graphics & Text | Print | Product List | Glossary On
Versions: 1 2 3 4 5 6 7 8 9 10 11 12 13 14 15 16 17 18 19 20 21 22 23 24 25 26 27 28 29 30 31 32 33 34 35 36 37 38 39 40 41 42 43 44 45 46 47 48 49 50
865
ASUS45 KBOU 022207
RWRCO

WEATHER ROUNDUP FOR COLORADO
NATIONAL WEATHER SERVICE DENVER/BOULDER CO
300 PM MST FRI DEC 02 2016

NOTE: "FAIR" INDICATES FEW OR NO CLOUDS BELOW 12000 FEET WITH NO
SIGNIFICANT WEATHER AND/OR OBSTRUCTIONS TO VISIBILITY.

COZ001>005-013-030-031-022300-
...NORTHWEST COLORADO...

CITY           SKY/WX    TMP DP  RH WIND       PRES   REMARKS
CRAIG          CLOUDY    25  15  66 NW8       30.13R WCI  16
HAYDEN         CLOUDY    21  14  73 W10       30.10R WCI  10
MEEKER         CLOUDY    25  18  74 NE9       30.10R WCI  15
MOUNT WERNER   NOT AVBL
STEAMBOAT SPGS CLOUDY    23  16  76 SW6       30.08R WCI  15
WALDEN           N/A     23  14  68 NW8       30.04R WCI  14
$$

COZ006>008-011-022300-
...WEST CENTRAL VALLEYS...

CITY           SKY/WX    TMP DP  RH WIND       PRES   REMARKS
GRAND JUNCTION CLOUDY    38  22  52 NW7       30.08R
MONTROSE       CLOUDY    33  19  56 VRB5      30.08R WCI  29
EAGLE          PTSUNNY   32  16  51 CALM      30.06R
RIFLE          CLOUDY    34  19  54 NW13      30.07R WCI  25
DELTA          NOT AVBL
NUCLA          CLOUDY    36  18  48 CALM      30.07R
$$

COZ017>023-064>068-022300-
...SOUTHWEST COLORADO...

CITY           SKY/WX    TMP DP  RH WIND       PRES   REMARKS
DURANGO        CLOUDY    37  20  50 NE12      29.98R
CORTEZ         CLOUDY    36  23  59 S12       29.98R
PAGOSA SPRINGS FAIR      34  21  59 CALM      29.99S
TELLURIDE      NOT AVBL
WOLF CREEK PAS SNOW      14  14 100 S12       30.02S VSB 1/4 WCI   0
$$

COZ009-010-012-014-032>034-037-058>063-022300-
...CENTRAL COLORADO...

CITY           SKY/WX    TMP DP  RH WIND       PRES   REMARKS
ASPEN          CLOUDY    27  17  66 CALM      30.00R
BUENA VISTA    LGT SNOW  21  17  86 SE7       30.07S WCI  12
COPPER MTN     CLOUDY    16   5  62 MISG      29.95R
BERTHOUD PASS  CLOUDY     3  -8  60 SE23      29.94S WCI -19
COTTONWOOD PAS LGT SNOW  21  18  86 E3        30.02S VSB 1
GUNNISON       FAIR      27  17  66 CALM      30.00S
KREMMLING      CLOUDY    32  21  64 CALM      30.05R
LEADVILLE      CLOUDY    14   9  80 S14       29.98R WCI  -1
MONARCH PASS   CLOUDY    10   7  85 E5        30.07S WCI   2
SALIDA         CLOUDY    24  19  83 CALM      30.17R
SUNLIGHT       LGT SNOW N/A N/A N/A CALM      30.02R
WILKERSON PASS LGT SNOW  14   9  79 S3        30.02S
$$

COZ069>075-022300-
...SAN LUIS VALLEY/SANGRE DE CRISTO MOUNTAINS...

CITY           SKY/WX    TMP DP  RH WIND       PRES   REMARKS
ALAMOSA        LGT SNOW  25  21  85 NW5       30.04R FOG     WCI  19
LA VETA PASS   LGT SNOW  16  12  86 SW6       30.02R VSB 3/4 WCI   7
SAGUACHE       CLOUDY    30  21  69 S5        30.05R WCI  25
$$

COZ035-036-038>040-022300-
...NORTHERN COLORADO FRONT RANGE...

CITY           SKY/WX    TMP DP  RH WIND       PRES   REMARKS
DENVER INTL AP PTSUNNY   32  23  69 E9        30.14F WCI  24
DMNS CITY PARK   N/A     34  17  49 S6G14     30.15R WCI  29
AURORA         PTSUNNY   31  20  65 SE10      30.14F WCI  22
FRONT RANGE AP NOT AVBL
ERIE MUNI ARPT FAIR      32  28  83 E5        30.16F WCI  27
BOULDER MUN AP LGT SNOW  32  25  74 E3        30.16R
CENTENNIAL     LGT SNOW  28  23  81 CALM      30.13F
BROOMFIELD     NOT AVBL
FORT COLLINS   PTSUNNY   32  21  64 SE7       30.18R WCI  26
LONGMONT       LGT SNOW  33  26  77 S5        30.19R WCI  28
$$

COZ041-046-047-076>085-087-088-022300-
...PIKES PEAK/PALMER DIVIDE AND SOUTHERN FOOTHILLS...

CITY           SKY/WX    TMP DP  RH WIND       PRES   REMARKS
COLO. SPRINGS  FLURRIES  29  18  63 S10       30.14R WCI  20
A. F. ACADEMY  LGT SNOW  27  21  80 S12       30.12R WCI  16
SCHRIEVER AFB  NOT AVBL
ELLICOTT       CLOUDY   N/A N/A N/A SE8       30.13R
FALCON         CLOUDY    27  17  65 S9G17     30.13R WCI  18
FORT CARSON    PTSUNNY   28  21  74 NW2       30.13R
LIMON          CLOUDY    33  18  53 SE13      30.17R WCI  24
MONUMENT HILL  PTSUNNY   27  18  69 S13       30.12S WCI  16
TRINIDAD       CLOUDY    35  17  47 E5        30.12S WCI  31
$$

COZ042>045-048>051-090-091-022300-
...NORTHEAST COLORADO...

CITY           SKY/WX    TMP DP  RH WIND       PRES   REMARKS
GREELEY ARPT   FAIR      34  23  64 E7        30.19S WCI  28
AKRON          CLOUDY    36  18  48 S3        30.19S
BURLINGTON     PTSUNNY   41  16  36 S7        30.20S
WRAY           NOT AVBL
STERLING       FAIR      37  23  56 CALM      30.20S
HOLYOKE        FAIR      43  23  45 CALM      30.22F
FORT MORGAN    PTSUNNY   36  20  52 SE5       30.20S
$$

COZ086-089-092>099-022300-
...SOUTHEAST COLORADO...

CITY           SKY/WX    TMP DP  RH WIND       PRES   REMARKS
PUEBLO         PTSUNNY   34  18  52 CALM      30.17R
LA JUNTA       CLOUDY    38  14  37 CALM      30.18S
LAMAR          LGT RAIN  42  14  32 VRB5      30.17S
SPRINGFIELD      N/A     41  12  30 E13       30.15R
$$




USA.gov is the U.S. government's official web portal to all federal, state and local government web resources and services.